This demonstration page uses our WeatherBlox Daily Observations layout. Learn more.

Left ArrowRight Arrow

Hourly Observations for October 23, 2021

Temp ( °F °C ) Dew Point ( °F °C ) Humidity (%) Winds ( mph kmh ) Pressure ( in mb ) Visibility ( mi km ) Precip ( " mm )
12:53 am 00:53 Cloudy 47 8.3 37 2.8 69 69 E 24 39 29.55 1001 10 16 N/A
1:53 am 01:53 Cloudy with Light Rain 44 6.7 39 3.9 83 83 E 16 26 29.56 1001 10 16 0.02 0.51
6:53 am 06:53 Mostly Cloudy 51 10.6 38 3.3 61 61 SW 15 24 29.54 1000 10 16 N/A
7:53 am 07:53 Mostly Cloudy 51 10.6 39 3.9 64 64 SW 25 41 29.57 1001 10 16 N/A
8:53 am 08:53 Mostly Sunny 47 8.3 39 3.9 74 74 WSW 12 19 29.61 1003 10 16 N/A
9:53 am 09:53 Sunny 48 8.9 39 3.9 71 71 WSW 18 30 29.62 1003 10 16 N/A
10:53 am 10:53 Partly Cloudy 49 9.4 39 3.9 69 69 SW 9 15 29.63 1003 10 16 N/A
11:53 am 11:53 Mostly Cloudy 53 11.7 40 4.4 61 61 SSW 9 15 29.63 1003 10 16 N/A
12:53 pm 12:53 Partly Cloudy 55 12.8 39 3.9 55 55 N N/A 29.62 1003 10 16 N/A
1:53 pm 13:53 Mostly Sunny 60 15.6 35 1.7 39 39 WSW 13 20 29.59 1002 10 16 N/A
2:53 pm 14:53 Partly Cloudy 60 15.6 31 -0.6 33 33 SW 12 19 29.58 1002 10 16 N/A
3:53 pm 15:53 Partly Cloudy 60 15.6 30 -1.1 32 32 SW 15 24 29.59 1002 10 16 N/A
4:53 pm 16:53 Mostly Sunny 61 16.1 29 -1.7 30 30 W 13 20 29.60 1002 10 16 N/A
5:53 pm 17:53 Mostly Cloudy 58 14.4 29 -1.7 33 33 W 5 7 29.62 1003 10 16 N/A
6:53 pm 18:53 Cloudy 53 11.7 29 -1.7 40 40 WNW 8 13 29.63 1003 10 16 N/A
7:53 pm 19:53 Cloudy 49 9.4 30 -1.1 48 48 WNW 6 9 29.65 1004 10 16 N/A
8:53 pm 20:53 Mostly Clear 47 8.3 27 -2.8 46 46 W 7 11 29.67 1005 10 16 N/A
9:53 pm 21:53 Clear 40 4.4 25 -3.9 55 55 SW 8 13 29.70 1006 10 16 N/A
10:53 pm 22:53 Clear 37 2.8 25 -3.9 62 62 N N/A 29.71 1006 10 16 N/A
11:53 pm 23:53 Clear 35 1.7 25 -3.9 67 67 SW 12 19 29.72 1006 10 16 N/A

Powered by AerisWeather